Regional Weather Roundup
Issued by NWS Kansas City/Pleasant Hill, MO

Home | Current Version | Previous Version | Graphics & Text | Print | Product List | Glossary Off
Versions: 1 2 3 4 5 6 7 8 9 10 11 12 13 14 15 16 17 18 19 20 21 22 23 24 25 26 27 28 29 30 31 32 33 34 35 36 37 38 39 40 41 42 43 44 45 46 47 48 49 50

000
ASUS43 KEAX 271410
RWREAX

WEATHER ROUNDUP FOR EASTERN KANSAS AND NORTHWEST MISSOURI
NATIONAL WEATHER SERVICE KANSAS CITY/PLEASANT HILL MO
900 AM CDT TUE JUN 27 2017

KSZ040-057-103>105-MOZ028-029-037-043-271500-
...KANSAS CITY METROPOLITAN AREA...

CITY           SKY/WX    TMP DP  RH WIND       PRES   REMARKS
K.C. INTL      MOSUNNY   66  60  81 SE16      30.12S
K.C. DOWNTOWN  SUNNY     68  61  78 SE9       30.11F
LEES SUMMIT    SUNNY     66  60  81 E10       30.13S
OLATHE - IXD   SUNNY     67  57  70 SE13G22   30.11F
OLATHE - OJC   SUNNY     66  60  81 SE9       30.12S
LAWRENCE       SUNNY     66  60  81 E14       30.10F

$$

MOZ001>008-011>017-020>025-030>033-038>040-044>046-053-054-271500-
...NORTHERN AND CENTRAL MISSOURI...

CITY           SKY/WX    TMP DP  RH WIND       PRES   REMARKS
ST. JOSEPH     SUNNY     66  60  81 SE8       30.11F
MOSBY          SUNNY     63  61  94 SE6       30.13R
WARRENSBURG    SUNNY     61  61 100 E7        30.14R
WHITEMAN AFB   NOT AVBL
CLINTON        PTSUNNY   66  57  72 SE8       30.14S
SEDALIA        SUNNY     66  62  87 SE8       30.15S
WARSAW         NOT AVBL
CHILLICOTHE      N/A     66  61  84 E5        30.15S
KIRKSVILLE     SUNNY     65  54  67 E7        30.17R

$$

MOZ041-047>049-056>058-063>065-088>090-097-271500-
...EASTERN AND SOUTHERN MISSOURI...

CITY           SKY/WX    TMP DP  RH WIND       PRES   REMARKS
ST. LOUIS INTL SUNNY     69  57  65 E3        30.17S
SPIRIT OF STL  SUNNY     67  59  75 CALM      30.16S
COLUMBIA       SUNNY     66  60  81 E8        30.16S
JEFFERSON CITY MOSUNNY   62  60  93 SE7       30.16S
ROLLA          SUNNY     65  59  81 E10       30.16R
OSAGE BEACH    SUNNY     65  60  84 E5        30.17R
SPRINGFIELD    SUNNY     66  61  84 SE13      30.13S
BRANSON        MOSUNNY   66  59  77 SE9       30.16R
JOPLIN         SUNNY     70  66  87 SE5       30.11S
WEST PLAINS    SUNNY     67  60  78 E6        30.17R

$$

IAZ060-094-KSZ022-034>040-054-083-096-NEZ052-066-093-271500-
...KANSAS...SOUTHEAST NEBRASKA AND IOWA...

CITY           SKY/WX    TMP DP  RH WIND       PRES   REMARKS
TOPEKA         SUNNY     66  62  87 SE10G18   30.09S
MANHATTAN      MOSUNNY   67  61  81 SE6       30.06F
EMPORIA        CLOUDY    64  62  93 SE12      30.07F
CHANUTE        CLOUDY    66  63  90 SE6       30.10R
WICHITA        CLOUDY    67  64  90 E12       30.05R
OMAHA          MOSUNNY   65  53  65 SE8       30.11S
LINCOLN        SUNNY     67  57  70 SE14      30.08F
FALLS CITY     SUNNY     64  59  83 SE8       30.10S
LAMONI         SUNNY     64  52  64 SE6       30.14S
DES MOINES     MOSUNNY   64  49  57 SE10      30.14F

$$




USA.gov is the U.S. government's official web portal to all federal, state and local government web resources and services.